| time (UTC) | temp F | wind direction | speed MPH | gust MPH | rain 1hr in | rain 24hr in | rain mn in | humidity % | barometer mb |
| 20260505181604 | 41 | 248 | 1.0 | 1.0 | 0.00 | 0.02 | 0.02 | 56 | 1004.8 |
| 20260505180912 | 41 | 248 | 1.0 | 2.0 | 0.00 | 0.02 | 0.02 | 55 | 1004.8 |
| 20260505180211 | 42 | 248 | 1.0 | 2.0 | 0.00 | 0.02 | 0.02 | 54 | 1004.7 |
| 20260505175511 | 42 | 248 | 1.0 | 2.0 | 0.00 | 0.02 | 0.02 | 54 | 1004.6 |
| 20260505174810 | 43 | 248 | 1.0 | 2.0 | 0.00 | 0.02 | 0.02 | 52 | 1004.5 |
| 20260505174109 | 43 | 248 | 1.0 | 2.0 | 0.00 | 0.02 | 0.02 | 53 | 1004.5 |
| 20260505173405 | 44 | 248 | 0.0 | 1.0 | 0.00 | 0.02 | 0.02 | 52 | 1004.5 |
| 20260505172703 | 44 | 247 | 2.0 | 3.0 | 0.00 | 0.02 | 0.02 | 50 | 1004.4 |
| 20260505172001 | 45 | 248 | 1.0 | 2.0 | 0.00 | 0.02 | 0.02 | 50 | 1004.4 |
| 20260505171311 | 46 | 248 | 2.0 | 2.0 | 0.00 | 0.02 | 0.02 | 49 | 1004.4 |
| 20260505170610 | 46 | 257 | 3.0 | 7.0 | 0.00 | 0.02 | 0.02 | 49 | 1004.3 |
| 20260505165907 | 46 | 353 | 3.0 | 8.0 | 0.00 | 0.02 | 0.02 | 48 | 1004.2 |
| 20260505165205 | 46 | 267 | 3.0 | 5.0 | 0.00 | 0.02 | 0.02 | 48 | 1004.2 |
| 20260505164503 | 46 | 248 | 2.0 | 3.0 | 0.00 | 0.02 | 0.02 | 48 | 1004.1 |
| 20260505163813 | 47 | 266 | 2.0 | 3.0 | 0.00 | 0.02 | 0.02 | 48 | 1004.1 |
| 20260505163111 | 47 | 353 | 2.0 | 7.0 | 0.00 | 0.02 | 0.02 | 47 | 1004.2 |
| 20260505162409 | 47 | 254 | 6.0 | 8.0 | 0.00 | 0.02 | 0.02 | 47 | 1004.3 |
| 20260505161707 | 47 | 10 | 3.0 | 7.0 | 0.00 | 0.02 | 0.02 | 48 | 1004.3 |
| 20260505161006 | 47 | 248 | 2.0 | 3.0 | 0.00 | 0.02 | 0.02 | 50 | 1004.3 |
| 20260505160303 | 47 | 283 | 1.0 | 2.0 | 0.00 | 0.02 | 0.02 | 50 | 1004.2 |
| 20260505152804 | 48 | 248 | 1.0 | 3.0 | 0.00 | 0.02 | 0.02 | 49 | 1004.1 |
| 20260505152102 | 48 | 250 | 2.0 | 3.0 | 0.00 | 0.02 | 0.02 | 49 | 1004.1 |
| 20260505151413 | 49 | 17 | 3.0 | 12.0 | 0.00 | 0.02 | 0.02 | 49 | 1004.1 |
| 20260505150711 | 49 | 274 | 3.0 | 5.0 | 0.00 | 0.02 | 0.02 | 49 | 1003.9 |
| 20260505140402 | 62 | 248 | 5.0 | 3.0 | 0.00 | 0.02 | 0.02 | 38 | 1003.9 |
| 20260505130104 | 51 | 282 | 10.0 | 10.0 | 0.00 | 0.02 | 0.02 | 50 | 1003.4 |
| 20260505124711 | 53 | 273 | 6.0 | 12.0 | 0.00 | 0.02 | 0.02 | 48 | 1003.4 |
| 20260505124009 | 54 | 340 | 3.0 | 6.0 | 0.00 | 0.02 | 0.02 | 48 | 1003.3 |
| 20260505123308 | 56 | 342 | 3.0 | 7.0 | 0.00 | 0.02 | 0.02 | 50 | 1003.2 |
| 20260505122605 | 55 | 251 | 5.0 | 8.0 | 0.00 | 0.02 | 0.02 | 52 | 1003.2 |
| 20260505121903 | 52 | 345 | 3.0 | 6.0 | 0.00 | 0.02 | 0.02 | 56 | 1003.2 |
| 20260505121212 | 52 | 24 | 5.0 | 6.0 | 0.00 | 0.02 | 0.02 | 55 | 1003.1 |
| 20260505120509 | 54 | 354 | 3.0 | 5.0 | 0.00 | 0.02 | 0.02 | 52 | 1002.9 |
| 20260505115807 | 56 | 340 | 6.0 | 9.0 | 0.00 | 0.02 | 0.02 | 53 | 1002.8 |
| 20260505115103 | 54 | 207 | 6.0 | 10.0 | 0.00 | 0.02 | 0.02 | 54 | 1002.6 |
| 20260505114413 | 54 | 356 | 5.0 | 7.0 | 0.00 | 0.04 | 0.02 | 54 | 1002.5 |
| 20260505113710 | 56 | 286 | 5.0 | 5.0 | 0.00 | 0.04 | 0.02 | 53 | 1002.4 |
| 20260505113008 | 54 | 278 | 5.0 | 8.0 | 0.00 | 0.06 | 0.02 | 52 | 1002.3 |
| 20260505112307 | 54 | 0 | 3.0 | 9.0 | 0.00 | 0.06 | 0.02 | 55 | 1002.2 |
| 20260505111603 | 54 | 269 | 7.0 | 13.0 | 0.00 | 0.06 | 0.02 | 55 | 1002.2 |
| 20260505110901 | 51 | 281 | 5.0 | 10.0 | 0.00 | 0.06 | 0.02 | 59 | 1002.1 |
| 20260505110210 | 52 | 259 | 2.0 | 3.0 | 0.00 | 0.08 | 0.02 | 58 | 1001.9 |
| 20260505102008 | 53 | 347 | 6.0 | 12.0 | 0.00 | 0.10 | 0.02 | 57 | 1001.6 |
| 20260505101306 | 55 | 248 | 5.0 | 13.0 | 0.00 | 0.10 | 0.02 | 59 | 1001.4 |
| 20260505100603 | 53 | 305 | 2.0 | 5.0 | 0.00 | 0.10 | 0.02 | 64 | 1001.4 |
| 20260505095913 | 52 | 265 | 5.0 | 15.0 | 0.00 | 0.10 | 0.02 | 64 | 1001.3 |
| 20260505095211 | 51 | 19 | 5.0 | 7.0 | 0.00 | 0.10 | 0.02 | 68 | 1001.2 |
| 20260505094509 | 49 | 18 | 3.0 | 9.0 | 0.00 | 0.10 | 0.02 | 68 | 1001.0 |
| 20260505093807 | 49 | 329 | 9.0 | 12.0 | 0.00 | 0.10 | 0.02 | 67 | 1001.0 |
| 20260505093104 | 50 | 249 | 12.0 | 16.0 | 0.00 | 0.10 | 0.02 | 67 | 1000.8 |
| 20260505092401 | 51 | 234 | 6.0 | 10.0 | 0.00 | 0.10 | 0.02 | 64 | 1000.7 |
| 20260505091711 | 53 | 237 | 3.0 | 10.0 | 0.00 | 0.10 | 0.02 | 60 | 1000.2 |
| 20260505091008 | 54 | 345 | 8.0 | 12.0 | 0.00 | 0.10 | 0.02 | 58 | 1000.2 |
| 20260505090306 | 57 | 330 | 5.0 | 7.0 | 0.00 | 0.10 | 0.02 | 59 | 1000.2 |
| 20260505085603 | 57 | 22 | 3.0 | 2.0 | 0.00 | 0.10 | 0.02 | 64 | 1000.0 |
| 20260505084901 | 55 | 17 | 1.0 | 3.0 | 0.00 | 0.10 | 0.02 | 65 | 999.9 |
| 20260505084211 | 54 | 333 | 1.0 | 5.0 | 0.00 | 0.10 | 0.02 | 65 | 999.9 |
| 20260505083508 | 54 | 20 | 1.0 | 5.0 | 0.00 | 0.10 | 0.02 | 63 | 999.9 |
| 20260505082805 | 56 | 18 | 2.0 | 6.0 | 0.00 | 0.10 | 0.02 | 62 | 999.9 |
| 20260505082102 | 57 | 6 | 2.0 | 5.0 | 0.00 | 0.10 | 0.02 | 61 | 999.8 |
| 20260505081412 | 58 | 22 | 1.0 | 2.0 | 0.00 | 0.10 | 0.02 | 58 | 1000.0 |
| 20260505080710 | 62 | 4 | 1.0 | 7.0 | 0.00 | 0.10 | 0.02 | 57 | 999.9 |
| 20260505080007 | 64 | 5 | 2.0 | 6.0 | 0.00 | 0.10 | 0.02 | 57 | 999.9 |
| 20260505075305 | 63 | 14 | 2.0 | 7.0 | 0.00 | 0.10 | 0.02 | 61 | 999.8 |
| 20260505074604 | 59 | 18 | 2.0 | 5.0 | 0.00 | 0.10 | 0.02 | 64 | 999.7 |
| 20260505073913 | 58 | 5 | 1.0 | 6.0 | 0.00 | 0.10 | 0.02 | 65 | 999.8 |
| 20260505073210 | 57 | 344 | 2.0 | 3.0 | 0.00 | 0.10 | 0.02 | 63 | 999.7 |
| 20260505072507 | 59 | 264 | 2.0 | 5.0 | 0.00 | 0.10 | 0.02 | 62 | 999.8 |
| 20260505071805 | 60 | 347 | 3.0 | 5.0 | 0.00 | 0.10 | 0.02 | 61 | 999.8 |
| 20260505071103 | 59 | 0 | 2.0 | 6.0 | 0.00 | 0.10 | 0.02 | 64 | 999.7 |
| 20260505070411 | 57 | 350 | 3.0 | 5.0 | 0.00 | 0.10 | 0.02 | 68 | 999.6 |
| 20260505065709 | 55 | 13 | 3.0 | 5.0 | 0.00 | 0.10 | 0.02 | 69 | 999.5 |
| 20260505065006 | 54 | 354 | 3.0 | 5.0 | 0.00 | 0.10 | 0.02 | 73 | 999.3 |
| 20260505064305 | 52 | 343 | 3.0 | 6.0 | 0.00 | 0.10 | 0.02 | 75 | 999.3 |
| 20260505063603 | 51 | 0 | 3.0 | 5.0 | 0.00 | 0.10 | 0.02 | 77 | 999.3 |
| 20260505062911 | 50 | 353 | 3.0 | 6.0 | 0.00 | 0.10 | 0.02 | 79 | 999.5 |
| 20260505062209 | 50 | 9 | 2.0 | 5.0 | 0.00 | 0.10 | 0.02 | 79 | 999.6 |
| 20260505061507 | 49 | 341 | 3.0 | 5.0 | 0.00 | 0.10 | 0.02 | 80 | 999.7 |
| 20260505060805 | 49 | 358 | 3.0 | 5.0 | 0.00 | 0.10 | 0.02 | 79 | 999.9 |
| 20260505055411 | 48 | 325 | 6.0 | 9.0 | 0.00 | 0.10 | 0.02 | 84 | 999.6 |
| 20260505054709 | 46 | 4 | 5.0 | 7.0 | 0.00 | 0.10 | 0.02 | 86 | 999.7 |
| 20260505054006 | 46 | 332 | 3.0 | 6.0 | 0.00 | 0.10 | 0.02 | 86 | 999.5 |
| 20260505053303 | 46 | 11 | 6.0 | 13.0 | 0.00 | 0.10 | 0.02 | 87 | 999.6 |
| 20260505052601 | 45 | 344 | 3.0 | 12.0 | 0.00 | 0.10 | 0.02 | 88 | 999.8 |
| 20260505051910 | 45 | 9 | 2.0 | 5.0 | 0.00 | 0.10 | 0.02 | 87 | 999.7 |
| 20260505051208 | 45 | 9 | 3.0 | 7.0 | 0.00 | 0.10 | 0.02 | 87 | 999.7 |
| 20260505050506 | 46 | 336 | 2.0 | 3.0 | 0.00 | 0.10 | 0.02 | 86 | 999.7 |
| 20260505041611 | 44 | 13 | 2.0 | 3.0 | 0.00 | 0.10 | 0.02 | 89 | 1000.0 |
| 20260505040910 | 44 | 347 | 3.0 | 8.0 | 0.00 | 0.10 | 0.02 | 89 | 1000.1 |
| 20260505040209 | 44 | 331 | 2.0 | 3.0 | 0.00 | 0.10 | 0.02 | 89 | 1000.2 |
| 20260505035507 | 44 | 303 | 1.0 | 2.0 | 0.00 | 0.10 | 0.02 | 89 | 1000.5 |
| 20260505034804 | 43 | 355 | 2.0 | 6.0 | 0.00 | 0.10 | 0.02 | 88 | 1000.5 |
| 20260505034102 | 43 | 304 | 2.0 | 3.0 | 0.00 | 0.10 | 0.02 | 88 | 1000.5 |
| 20260505033411 | 43 | 330 | 1.0 | 1.0 | 0.00 | 0.10 | 0.02 | 88 | 1000.6 |
| 20260505032709 | 43 | 335 | 1.0 | 3.0 | 0.00 | 0.10 | 0.02 | 88 | 1000.7 |
| 20260505032007 | 43 | 52 | 0.0 | 0.0 | 0.00 | 0.10 | 0.02 | 88 | 1000.7 |
| 20260505031305 | 43 | 54 | 0.0 | 2.0 | 0.00 | 0.10 | 0.02 | 88 | 1000.6 |
| 20260505030604 | 42 | 0 | 1.0 | 2.0 | 0.00 | 0.10 | 0.02 | 88 | 1000.6 |
| 20260505025902 | 42 | 349 | 1.0 | 3.0 | 0.00 | 0.10 | 0.02 | 88 | 1000.6 |
| 20260505025212 | 42 | 333 | 1.0 | 2.0 | 0.00 | 0.10 | 0.02 | 88 | 1000.6 |
| 20260505024510 | 42 | 25 | 0.0 | 1.0 | 0.00 | 0.10 | 0.02 | 88 | 1000.5 |
| 20260505023808 | 42 | 340 | 1.0 | 1.0 | 0.00 | 0.10 | 0.02 | 88 | 1000.6 |
| 20260505023107 | 42 | 342 | 0.0 | 1.0 | 0.00 | 0.10 | 0.02 | 88 | 1000.6 |
| 20260505022406 | 42 | 332 | 1.0 | 1.0 | 0.00 | 0.10 | 0.02 | 88 | 1000.7 |
| 20260505021703 | 42 | 0 | 1.0 | 3.0 | 0.00 | 0.10 | 0.02 | 88 | 1000.6 |
| 20260505021013 | 42 | 357 | 1.0 | 1.0 | 0.00 | 0.10 | 0.02 | 88 | 1000.7 |
| 20260505020311 | 42 | 348 | 0.0 | 2.0 | 0.00 | 0.10 | 0.02 | 88 | 1000.7 |
| 20260505015610 | 42 | 0 | 1.0 | 2.0 | 0.00 | 0.10 | 0.02 | 88 | 1000.8 |
| 20260505014908 | 42 | 0 | 1.0 | 2.0 | 0.00 | 0.10 | 0.02 | 88 | 1000.8 |
| 20260505014204 | 41 | 1 | 0.0 | 1.0 | 0.00 | 0.10 | 0.02 | 88 | 1000.8 |
| 20260505013503 | 41 | 0 | 0.0 | 0.0 | 0.00 | 0.10 | 0.02 | 88 | 1000.8 |
| 20260505012801 | 41 | 359 | 1.0 | 2.0 | 0.00 | 0.10 | 0.02 | 88 | 1000.8 |
| 20260505012111 | 41 | 0 | 0.0 | 2.0 | 0.00 | 0.10 | 0.02 | 88 | 1000.8 |
| 20260505011409 | 41 | 7 | 0.0 | 0.0 | 0.02 | 0.10 | 0.02 | 88 | 1000.7 |
| 20260505010705 | 41 | 11 | 0.0 | 0.0 | 0.02 | 0.10 | 0.02 | 88 | 1000.7 |
| 20260505010005 | 41 | 8 | 0.0 | 1.0 | 0.02 | 0.10 | 0.02 | 88 | 1000.6 |
| 20260505005303 | 41 | 6 | 0.0 | 0.0 | 0.02 | 0.10 | 0.02 | 88 | 1000.7 |
| 20260505004612 | 42 | 1 | 0.0 | 1.0 | 0.02 | 0.10 | 0.02 | 88 | 1000.7 |
| 20260505003911 | 42 | 5 | 1.0 | 2.0 | 0.02 | 0.10 | 0.02 | 88 | 1000.7 |
| 20260505003208 | 42 | 13 | 0.0 | 0.0 | 0.02 | 0.10 | 0.02 | 88 | 1000.6 |
| 20260505002506 | 42 | 20 | 0.0 | 0.0 | 0.02 | 0.10 | 0.02 | 88 | 1000.6 |
| 20260505001804 | 43 | 15 | 0.0 | 0.0 | 0.02 | 0.10 | 0.02 | 88 | 1000.6 |
| 20260505001102 | 43 | 15 | 0.0 | 2.0 | 0.00 | 0.08 | 0.00 | 88 | 1000.6 |
| 20260505000413 | 43 | 15 | 0.0 | 1.0 | 0.00 | 0.08 | 0.00 | 88 | 1000.8 |
| 20260504235709 | 43 | 3 | 0.0 | 3.0 | 0.00 | 0.08 | 0.00 | 88 | 1000.8 |
| 20260504235006 | 43 | 3 | 0.0 | 2.0 | 0.00 | 0.08 | 0.00 | 88 | 1000.9 |
| 20260504234303 | 43 | 16 | 0.0 | 1.0 | 0.00 | 0.08 | 0.00 | 88 | 1001.2 |
| 20260504233612 | 43 | 9 | 1.0 | 2.0 | 0.00 | 0.08 | 0.00 | 88 | 1001.2 |
| 20260504232912 | 43 | 18 | 0.0 | 2.0 | 0.00 | 0.08 | 0.00 | 88 | 1001.3 |
| 20260504232209 | 43 | 11 | 0.0 | 0.0 | 0.00 | 0.08 | 0.00 | 88 | 1001.1 |
| 20260504231507 | 43 | 7 | 0.0 | 1.0 | 0.00 | 0.08 | 0.00 | 88 | 1001.1 |
| 20260504230806 | 43 | 14 | 0.0 | 0.0 | 0.00 | 0.08 | 0.00 | 88 | 1001.2 |
| 20260504230103 | 43 | 22 | 0.0 | 0.0 | 0.00 | 0.08 | 0.00 | 88 | 1001.0 |
| 20260504225413 | 43 | 11 | 1.0 | 3.0 | 0.00 | 0.08 | 0.00 | 88 | 1001.1 |
| 20260504224711 | 44 | 0 | 0.0 | 0.0 | 0.00 | 0.08 | 0.00 | 88 | 1001.0 |
| 20260504224009 | 44 | 10 | 1.0 | 2.0 | 0.00 | 0.08 | 0.00 | 88 | 1001.1 |
| 20260504223307 | 44 | 14 | 0.0 | 3.0 | 0.00 | 0.08 | 0.00 | 88 | 1001.1 |
| 20260504222606 | 43 | 22 | 0.0 | 2.0 | 0.00 | 0.08 | 0.00 | 88 | 1001.1 |
| 20260504221904 | 43 | 20 | 1.0 | 2.0 | 0.00 | 0.08 | 0.00 | 88 | 1001.1 |
| 20260504221202 | 42 | 2 | 1.0 | 1.0 | 0.00 | 0.08 | 0.00 | 88 | 1000.9 |
| 20260504220513 | 41 | 22 | 2.0 | 3.0 | 0.00 | 0.08 | 0.00 | 88 | 1000.8 |
| 20260504215811 | 41 | 22 | 0.0 | 0.0 | 0.00 | 0.08 | 0.08 | 88 | 1001.0 |
| 20260504215107 | 40 | 17 | 0.0 | 0.0 | 0.00 | 0.08 | 0.08 | 88 | 1001.0 |
| 20260504214405 | 40 | 12 | 1.0 | 2.0 | 0.00 | 0.08 | 0.08 | 88 | 1000.9 |
| 20260504213704 | 39 | 22 | 0.0 | 0.0 | 0.00 | 0.08 | 0.08 | 88 | 1000.9 |
| 20260504213004 | 40 | 22 | 0.0 | 0.0 | 0.00 | 0.08 | 0.08 | 88 | 1000.8 |
| 20260504212304 | 40 | 22 | 0.0 | 0.0 | 0.00 | 0.08 | 0.08 | 88 | 1000.9 |
| 20260504211612 | 40 | 22 | 0.0 | 1.0 | 0.00 | 0.08 | 0.08 | 88 | 1000.9 |
| 20260504210911 | 40 | 22 | 0.0 | 0.0 | 0.00 | 0.08 | 0.08 | 88 | 1000.9 |
| 20260504210209 | 40 | 22 | 0.0 | 0.0 | 0.00 | 0.08 | 0.08 | 88 | 1000.9 |
| 20260504205508 | 40 | 22 | 0.0 | 0.0 | 0.00 | 0.08 | 0.08 | 88 | 1000.9 |
| 20260504204806 | 40 | 22 | 0.0 | 0.0 | 0.00 | 0.08 | 0.08 | 88 | 1001.0 |
| 20260504204103 | 40 | 22 | 0.0 | 0.0 | 0.00 | 0.08 | 0.08 | 88 | 1001.1 |
| 20260504203402 | 40 | 22 | 0.0 | 0.0 | 0.00 | 0.08 | 0.08 | 88 | 1001.0 |
| 20260504202713 | 40 | 22 | 0.0 | 0.0 | 0.00 | 0.08 | 0.08 | 88 | 1000.9 |
| 20260504202011 | 40 | 22 | 0.0 | 1.0 | 0.00 | 0.08 | 0.08 | 88 | 1000.8 |
| 20260504201309 | 40 | 22 | 0.0 | 0.0 | 0.00 | 0.08 | 0.08 | 88 | 1000.8 |
| 20260504200606 | 41 | 22 | 0.0 | 0.0 | 0.00 | 0.08 | 0.08 | 88 | 1000.8 |
| 20260504195903 | 41 | 22 | 1.0 | 1.0 | 0.00 | 0.08 | 0.08 | 89 | 1000.7 |
| 20260504195202 | 41 | 22 | 0.0 | 1.0 | 0.00 | 0.08 | 0.08 | 89 | 1000.7 |
| 20260504194511 | 41 | 22 | 0.0 | 1.0 | 0.00 | 0.08 | 0.08 | 89 | 1000.7 |
| 20260504193809 | 41 | 18 | 0.0 | 0.0 | 0.00 | 0.08 | 0.08 | 89 | 1000.6 |
| 20260504193106 | 42 | 22 | 1.0 | 0.0 | 0.00 | 0.08 | 0.08 | 89 | 1000.7 |
| 20260504192404 | 42 | 22 | 0.0 | 1.0 | 0.00 | 0.08 | 0.08 | 88 | 1000.6 |
| 20260504191702 | 42 | 22 | 0.0 | 1.0 | 0.00 | 0.08 | 0.08 | 88 | 1000.8 |
| 20260504191001 | 42 | 22 | 0.0 | 0.0 | 0.00 | 0.08 | 0.08 | 88 | 1000.7 |
| 20260504190312 | 42 | 22 | 0.0 | 0.0 | 0.00 | 0.08 | 0.08 | 88 | 1000.7 |
| 20260504185611 | 43 | 22 | 0.0 | 2.0 | 0.00 | 0.08 | 0.08 | 88 | 1000.7 |
| 20260504184910 | 43 | 22 | 0.0 | 0.0 | 0.00 | 0.08 | 0.08 | 88 | 1000.7 |
| 20260504184208 | 44 | 22 | 0.0 | 1.0 | 0.00 | 0.08 | 0.08 | 87 | 1000.6 |
| 20260504183505 | 44 | 22 | 0.0 | 0.0 | 0.00 | 0.08 | 0.08 | 87 | 1000.6 |
| 20260504182803 | 45 | 22 | 0.0 | 0.0 | 0.00 | 0.08 | 0.08 | 86 | 1000.5 |
| 20260504182112 | 46 | 22 | 0.0 | 0.0 | 0.00 | 0.08 | 0.08 | 86 | 1000.4 |